Time,TemperatureF,DewpointF,PressureIn,WindDirection,WindDirectionDegrees,WindSpeedMPH,WindSpeedGustMPH,Humidity,HourlyPrecipIn,Conditions,Clouds,dailyrainin,SolarRadiationWatts/m^2,SoftwareType,DateUTC
2013-02-02 00:02:00,-1.0,-11.0,-100.00,West,278,4.0,7.0,61,0.00,,,0.00,0.000000,,2013-02-02 06:02:00,
2013-02-02 00:12:00,0.0,-11.0,-100.00,WNW,293,5.0,8.0,59,0.00,,,0.00,0.000000,,2013-02-02 06:12:00,
2013-02-02 00:32:00,0.0,-11.0,-100.00,WNW,293,5.0,8.0,59,0.00,,,0.00,0.000000,,2013-02-02 06:32:00,
2013-02-02 00:42:00,0.0,-11.0,-100.00,WNW,293,5.0,8.0,59,0.00,,,0.00,0.000000,,2013-02-02 06:42:00,
2013-02-02 00:52:00,0.0,-11.0,-100.00,WNW,293,5.0,8.0,59,0.00,,,0.00,0.000000,,2013-02-02 06:52:00,
2013-02-02 01:02:00,0.0,-11.0,-100.00,WNW,293,5.0,8.0,59,0.00,,,0.00,0.000000,,2013-02-02 07:02:00,
2013-02-02 01:32:00,-1.0,-12.0,-100.00,WNW,297,4.0,8.0,59,0.00,,,0.00,0.000000,,2013-02-02 07:32:00,
2013-02-02 01:42:00,-1.0,-12.0,-100.00,WNW,297,4.0,8.0,59,0.00,,,0.00,0.000000,,2013-02-02 07:42:00,
2013-02-02 01:52:00,-1.0,-12.0,-100.00,WNW,297,4.0,8.0,59,0.00,,,0.00,0.000000,,2013-02-02 07:52:00,
2013-02-02 02:01:00,-1.0,-12.0,-100.00,WNW,297,4.0,8.0,59,0.00,,,0.00,0.000000,,2013-02-02 08:01:00,
2013-02-02 02:11:00,-1.0,-12.0,-100.00,WNW,297,4.0,8.0,59,0.00,,,0.00,0.000000,,2013-02-02 08:11:00,
2013-02-02 03:32:00,-1.0,-11.0,-100.00,NW,305,3.0,6.0,60,-99.99,,,0.00,0.000000,,2013-02-02 09:32:00,
2013-02-02 03:42:00,-1.0,-11.0,-100.00,NW,305,3.0,6.0,60,-99.99,,,0.00,0.000000,,2013-02-02 09:42:00,
2013-02-02 03:52:00,-1.0,-11.0,-100.00,NW,305,3.0,6.0,60,-99.99,,,0.00,0.000000,,2013-02-02 09:52:00,
2013-02-02 04:01:00,-1.0,-11.0,-100.00,NW,305,3.0,6.0,60,-99.99,,,0.00,0.000000,,2013-02-02 10:01:00,
2013-02-02 04:11:00,-1.0,-11.0,-100.00,NW,305,3.0,6.0,60,-99.99,,,0.00,0.000000,,2013-02-02 10:11:00,
2013-02-02 04:32:00,-4.0,-13.0,-100.00,NW,322,2.0,7.0,64,0.00,,,0.00,0.000000,,2013-02-02 10:32:00,
2013-02-02 04:42:00,-4.0,-13.0,-100.00,NW,322,2.0,7.0,64,0.00,,,0.00,0.000000,,2013-02-02 10:42:00,
2013-02-02 04:52:00,-4.0,-13.0,-100.00,NW,322,2.0,7.0,64,0.00,,,0.00,0.000000,,2013-02-02 10:52:00,
2013-02-02 05:01:00,-4.0,-13.0,-100.00,NW,322,2.0,7.0,64,0.00,,,0.00,0.000000,,2013-02-02 11:01:00,
2013-02-02 05:11:00,-4.0,-13.0,-100.00,NW,322,2.0,7.0,64,0.00,,,0.00,0.000000,,2013-02-02 11:11:00,
2013-02-02 05:32:00,-6.0,-14.0,-100.00,NW,314,3.0,5.0,67,0.00,,,0.00,0.000000,,2013-02-02 11:32:00,
2013-02-02 05:42:00,-6.0,-14.0,-100.00,NW,314,3.0,5.0,67,0.00,,,0.00,0.000000,,2013-02-02 11:42:00,
2013-02-02 05:52:00,-6.0,-14.0,-100.00,NW,314,3.0,5.0,67,0.00,,,0.00,0.000000,,2013-02-02 11:52:00,
2013-02-02 06:02:00,-6.0,-14.0,-100.00,NW,314,3.0,5.0,67,0.00,,,0.00,0.000000,,2013-02-02 12:02:00,
2013-02-02 06:11:00,-6.0,-14.0,-100.00,NW,314,3.0,5.0,67,0.00,,,0.00,0.000000,,2013-02-02 12:11:00,
2013-02-02 06:32:00,-8.0,-16.0,-100.00,NW,315,4.0,6.0,68,0.00,,,0.00,0.000000,,2013-02-02 12:32:00,
2013-02-02 06:42:00,-8.0,-16.0,-100.00,NW,315,4.0,6.0,68,0.00,,,0.00,0.000000,,2013-02-02 12:42:00,
2013-02-02 06:52:00,-8.0,-16.0,-100.00,NW,315,4.0,6.0,68,0.00,,,0.00,0.000000,,2013-02-02 12:52:00,
2013-02-02 07:02:00,-8.0,-16.0,-100.00,NW,315,4.0,6.0,68,0.00,,,0.00,0.000000,,2013-02-02 13:02:00,
2013-02-02 07:11:00,-8.0,-16.0,-100.00,NW,315,4.0,6.0,68,0.00,,,0.00,0.000000,,2013-02-02 13:11:00,
2013-02-02 07:33:00,-8.0,-15.0,-100.00,NW,317,4.0,7.0,69,0.00,,,0.00,1.000000,,2013-02-02 13:33:00,
2013-02-02 07:42:00,-8.0,-15.0,-100.00,NW,317,4.0,7.0,69,0.00,,,0.00,1.000000,,2013-02-02 13:42:00,
2013-02-02 07:52:00,-8.0,-15.0,-100.00,NW,317,4.0,7.0,69,0.00,,,0.00,1.000000,,2013-02-02 13:52:00,
2013-02-02 08:02:00,-8.0,-15.0,-100.00,NW,317,4.0,7.0,69,0.00,,,0.00,1.000000,,2013-02-02 14:02:00,
2013-02-02 08:11:00,-8.0,-15.0,-100.00,NW,317,4.0,7.0,69,0.00,,,0.00,1.000000,,2013-02-02 14:11:00,
2013-02-02 08:12:00,-2.0,-11.0,-100.00,NNW,328,5.0,8.0,63,0.00,,,0.00,49.000000,,2013-02-02 14:12:00,
2013-02-02 08:33:00,-2.0,-11.0,-100.00,NNW,328,5.0,8.0,63,0.00,,,0.00,49.000000,,2013-02-02 14:33:00,
2013-02-02 08:42:00,-2.0,-11.0,-100.00,NNW,328,5.0,8.0,63,0.00,,,0.00,49.000000,,2013-02-02 14:42:00,
2013-02-02 08:52:00,-2.0,-11.0,-100.00,NNW,328,5.0,8.0,63,0.00,,,0.00,49.000000,,2013-02-02 14:52:00,
2013-02-02 09:03:00,-2.0,-11.0,-100.00,NNW,328,5.0,8.0,63,0.00,,,0.00,49.000000,,2013-02-02 15:03:00,
2013-02-02 09:33:00,7.0,-6.0,-100.00,NNW,339,6.0,10.0,53,0.00,,,0.00,231.000000,,2013-02-02 15:33:00,
2013-02-02 10:42:00,13.0,-5.0,-100.00,NNW,335,7.0,15.0,44,0.00,,,0.00,383.000000,,2013-02-02 16:42:00,
2013-02-02 10:52:00,13.0,-5.0,-100.00,NNW,335,7.0,15.0,44,0.00,,,0.00,383.000000,,2013-02-02 16:52:00,
2013-02-02 11:02:00,13.0,-5.0,-100.00,NNW,335,7.0,15.0,44,0.00,,,0.00,383.000000,,2013-02-02 17:02:00,
2013-02-02 11:11:00,13.0,-5.0,-100.00,NNW,335,7.0,15.0,44,0.00,,,0.00,383.000000,,2013-02-02 17:11:00,
2013-02-02 11:12:00,18.0,-3.0,-100.00,North,354,7.0,15.0,39,0.00,,,0.00,419.000000,,2013-02-02 17:12:00,
2013-02-02 11:33:00,18.0,-3.0,-100.00,North,354,7.0,15.0,39,0.00,,,0.00,419.000000,,2013-02-02 17:33:00,
2013-02-02 12:32:00,20.0,-3.0,-100.00,NNW,333,5.0,13.0,35,0.00,,,0.00,549.000000,,2013-02-02 18:32:00,
2013-02-02 13:02:00,20.0,-3.0,-100.00,NNW,333,5.0,13.0,35,0.00,,,0.00,549.000000,,2013-02-02 19:02:00,
2013-02-02 13:32:00,20.0,-4.0,-100.00,NW,316,6.0,11.0,33,0.00,,,0.00,542.000000,,2013-02-02 19:32:00,
2013-02-02 13:42:00,20.0,-4.0,-100.00,NW,316,6.0,11.0,33,0.00,,,0.00,542.000000,,2013-02-02 19:42:00,
2013-02-02 13:52:00,20.0,-4.0,-100.00,NW,316,6.0,11.0,33,0.00,,,0.00,542.000000,,2013-02-02 19:52:00,
2013-02-02 14:01:00,20.0,-4.0,-100.00,NW,316,6.0,11.0,33,0.00,,,0.00,542.000000,,2013-02-02 20:01:00,
2013-02-02 14:11:00,20.0,-4.0,-100.00,NW,316,6.0,11.0,33,0.00,,,0.00,542.000000,,2013-02-02 20:11:00,
2013-02-02 14:32:00,20.0,-6.0,-100.00,NNW,332,5.0,11.0,31,0.00,,,0.00,473.000000,,2013-02-02 20:32:00,
2013-02-02 14:42:00,20.0,-6.0,-100.00,NNW,332,5.0,11.0,31,0.00,,,0.00,473.000000,,2013-02-02 20:42:00,
2013-02-02 14:52:00,20.0,-6.0,-100.00,NNW,332,5.0,11.0,31,0.00,,,0.00,473.000000,,2013-02-02 20:52:00,
2013-02-02 15:02:00,20.0,-6.0,-100.00,NNW,332,5.0,11.0,31,0.00,,,0.00,473.000000,,2013-02-02 21:02:00,
2013-02-02 15:11:00,20.0,-6.0,-100.00,NNW,332,5.0,11.0,31,0.00,,,0.00,473.000000,,2013-02-02 21:11:00,
2013-02-02 15:12:00,21.0,-5.0,-100.00,NNW,343,3.0,12.0,31,0.00,,,0.00,350.000000,,2013-02-02 21:12:00,
2013-02-02 15:32:00,21.0,-5.0,-100.00,NNW,343,3.0,12.0,31,0.00,,,0.00,350.000000,,2013-02-02 21:32:00,
2013-02-02 15:42:00,21.0,-5.0,-100.00,NNW,343,3.0,12.0,31,0.00,,,0.00,350.000000,,2013-02-02 21:42:00,
2013-02-02 15:52:00,21.0,-5.0,-100.00,NNW,343,3.0,12.0,31,0.00,,,0.00,350.000000,,2013-02-02 21:52:00,
2013-02-02 16:02:00,21.0,-5.0,-100.00,NNW,343,3.0,12.0,31,0.00,,,0.00,350.000000,,2013-02-02 22:02:00,
2013-02-02 16:32:00,17.0,-5.0,-100.00,NNW,333,3.0,8.0,36,0.00,,,0.00,175.000000,,2013-02-02 22:32:00,
2013-02-02 16:42:00,17.0,-5.0,-100.00,NNW,333,3.0,8.0,36,0.00,,,0.00,175.000000,,2013-02-02 22:42:00,
2013-02-02 16:52:00,17.0,-5.0,-100.00,NNW,333,3.0,8.0,36,0.00,,,0.00,175.000000,,2013-02-02 22:52:00,
2013-02-02 17:02:00,17.0,-5.0,-100.00,NNW,333,3.0,8.0,36,0.00,,,0.00,175.000000,,2013-02-02 23:02:00,
2013-02-02 17:11:00,17.0,-5.0,-100.00,NNW,333,3.0,8.0,36,0.00,,,0.00,175.000000,,2013-02-02 23:11:00,
2013-02-02 17:32:00,9.0,-5.0,-100.00,NW,324,1.0,5.0,52,0.00,,,0.00,31.000000,,2013-02-02 23:32:00,
2013-02-02 17:42:00,9.0,-5.0,-100.00,NW,324,1.0,5.0,52,0.00,,,0.00,31.000000,,2013-02-02 23:42:00,
2013-02-02 17:52:00,9.0,-5.0,-100.00,NW,324,1.0,5.0,52,0.00,,,0.00,31.000000,,2013-02-02 23:52:00,
2013-02-02 18:02:00,9.0,-5.0,-100.00,NW,324,1.0,5.0,52,0.00,,,0.00,31.000000,,2013-02-03 00:02:00,
2013-02-02 18:11:00,9.0,-5.0,-100.00,NW,324,1.0,5.0,52,0.00,,,0.00,31.000000,,2013-02-03 00:11:00,
2013-02-02 18:32:00,2.0,-7.0,-100.00,WNW,284,0.0,0.0,66,0.00,,,0.00,0.000000,,2013-02-03 00:32:00,
2013-02-02 18:42:00,2.0,-7.0,-100.00,WNW,284,0.0,0.0,66,0.00,,,0.00,0.000000,,2013-02-03 00:42:00,
2013-02-02 18:52:00,2.0,-7.0,-100.00,WNW,284,0.0,0.0,66,0.00,,,0.00,0.000000,,2013-02-03 00:52:00,
2013-02-02 19:02:00,2.0,-7.0,-100.00,WNW,284,0.0,0.0,66,0.00,,,0.00,0.000000,,2013-02-03 01:02:00,
2013-02-02 19:11:00,2.0,-7.0,-100.00,WNW,284,0.0,0.0,66,0.00,,,0.00,0.000000,,2013-02-03 01:11:00,
2013-02-02 19:32:00,-1.0,-8.0,-100.00,North,7,0.0,6.0,70,0.00,,,0.00,0.000000,,2013-02-03 01:32:00,
2013-02-02 19:42:00,-1.0,-8.0,-100.00,North,7,0.0,6.0,70,0.00,,,0.00,0.000000,,2013-02-03 01:42:00,
2013-02-02 19:52:00,-1.0,-8.0,-100.00,North,7,0.0,6.0,70,0.00,,,0.00,0.000000,,2013-02-03 01:52:00,
2013-02-02 20:01:00,-1.0,-8.0,-100.00,North,7,0.0,6.0,70,0.00,,,0.00,0.000000,,2013-02-03 02:01:00,
2013-02-02 20:11:00,-1.0,-8.0,-100.00,North,7,0.0,6.0,70,0.00,,,0.00,0.000000,,2013-02-03 02:11:00,
2013-02-02 20:42:00,-5.0,-11.0,-100.00,SE,126,0.0,2.0,73,0.00,,,0.00,0.000000,,2013-02-03 02:42:00,
2013-02-02 20:52:00,-5.0,-11.0,-100.00,SE,126,0.0,2.0,73,0.00,,,0.00,0.000000,,2013-02-03 02:52:00,
2013-02-02 21:02:00,-5.0,-11.0,-100.00,SE,126,0.0,2.0,73,0.00,,,0.00,0.000000,,2013-02-03 03:02:00,
2013-02-02 21:11:00,-5.0,-11.0,-100.00,SE,126,0.0,2.0,73,0.00,,,0.00,0.000000,,2013-02-03 03:11:00,
2013-02-02 21:32:00,-6.0,-12.0,-100.00,WNW,295,0.0,3.0,75,0.00,,,0.00,0.000000,,2013-02-03 03:32:00,
2013-02-02 21:42:00,-6.0,-12.0,-100.00,WNW,295,0.0,3.0,75,0.00,,,0.00,0.000000,,2013-02-03 03:42:00,
2013-02-02 21:52:00,-6.0,-12.0,-100.00,WNW,295,0.0,3.0,75,0.00,,,0.00,0.000000,,2013-02-03 03:52:00,
2013-02-02 22:01:00,-6.0,-12.0,-100.00,WNW,295,0.0,3.0,75,0.00,,,0.00,0.000000,,2013-02-03 04:01:00,
2013-02-02 22:11:00,-6.0,-12.0,-100.00,WNW,295,0.0,3.0,75,0.00,,,0.00,0.000000,,2013-02-03 04:11:00,
2013-02-02 22:32:00,-9.0,-15.0,-100.00,NE,42,0.0,3.0,73,0.00,,,0.00,0.000000,,2013-02-03 04:32:00,
2013-02-02 22:42:00,-9.0,-15.0,-100.00,NE,42,0.0,3.0,73,0.00,,,0.00,0.000000,,2013-02-03 04:42:00,
2013-02-02 22:52:00,-9.0,-15.0,-100.00,NE,42,0.0,3.0,73,0.00,,,0.00,0.000000,,2013-02-03 04:52:00,
2013-02-02 23:03:00,-9.0,-15.0,-100.00,NE,42,0.0,3.0,73,0.00,,,0.00,0.000000,,2013-02-03 05:03:00,
2013-02-02 23:11:00,-9.0,-15.0,-100.00,NE,42,0.0,3.0,73,0.00,,,0.00,0.000000,,2013-02-03 05:11:00,
2013-02-02 23:32:00,-7.0,-14.0,-100.00,East,100,2.0,3.0,72,0.00,,,0.00,0.000000,,2013-02-03 05:32:00,
2013-02-02 23:42:00,-7.0,-14.0,-100.00,East,100,2.0,3.0,72,0.00,,,0.00,0.000000,,2013-02-03 05:42:00,
2013-02-02 23:52:00,-7.0,-14.0,-100.00,East,100,2.0,3.0,72,0.00,,,0.00,0.000000,,2013-02-03 05:52:00,